Location: *
(46.3500°N, 10.9000°E)
Time: 00:14:57
(UTC+00:00)

Vanguard 2 - Pass Details

Date: 28 April 2021
Orbit: 552 x 2938 km, 32.9° (Epoch: 12 May)

Event Time Altitude Azimuth Distance (km) Brightness Sun altitude
Rises 06:00:32 0° 181° (S) 6,161 12.1 18.2°
Reaches altitude 10° 06:07:36 10° 160° (SSE) 5,513 12.2 19.5°
Maximum altitude 06:15:00 14° 134° (SE) 5,346 12.7 20.7°
Drops below altitude 10° 06:22:37 10° 108° (ESE) 5,756 13.7 22.1°
Sets 06:30:12 0° 88° (E) 6,618 13.7 23.4°
